Location: Jastrz?bniki
(50.3667°N, 20.3833°E)
Time: 11:09:55
(UTC+00:00)

Cosmos 1733 - Pass Details

Date: 05 August 2024
Orbit: 443 x 456 km, 82.5° (Epoch: 09 September)

Event Time Altitude Azimuth Distance (km) Brightness Sun altitude
Exits shadow 00:14:39 54° 268° (W) 579 3.2 -19.9°
Maximum altitude 00:14:50 55° 283° (WNW) 573 3.3 -19.9°
Drops below altitude 10° 00:18:23 10° 2° (N) 1,646 6.8 -19.6°
Sets 00:20:31 0° 7° (N) 2,529 8.1 -19.5°
